DW5450 Weather Reports


time (UTC)temp
F
wind
direction
speed
knots
gust
knots
rain 1hr
in
rain 24hr
in
rain mn
in
humidity
%
barometer
mb
20260509063029 68 16 0.0 0.9 0.00 0.00 0.00 64 1010.2
20260509061525 68 16 0.0 1.7 0.00 0.00 0.00 65 1010.2
20260509060025 68 16 0.0 3.5 0.00 0.00 0.00 66 1010.1
20260509054531 68 14 0.0 0.9 0.00 0.00 0.00 65 1010.2
20260509053024 68 14 0.0 2.6 0.00 0.00 0.00 65 1010.2
20260509051524 68 101 0.0 1.7 0.00 0.00 0.00 65 1010.1
20260509050033 69 113 0.0 0.9 0.00 0.00 0.00 66 1010.2
20260509044522 69 113 0.0 0.9 0.00 0.00 0.00 65 1010.0
20260509043037 70 123 0.0 0.9 0.00 0.00 0.00 66 1010.0
20260509041521 71 123 0.0 1.7 0.00 0.00 0.00 65 1009.8
20260509040021 72 127 0.0 0.0 0.00 0.00 0.00 64 1009.6
20260509034520 74 127 0.0 0.0 0.00 0.00 0.00 64 1009.6
20260509033022 74 127 0.0 0.0 0.00 0.00 0.00 62 1009.4
20260509031521 75 127 0.0 2.6 0.00 0.00 0.00 59 1009.3
20260509030022 75 127 0.0 1.7 0.00 0.00 0.00 58 1009.1
20260509024518 76 127 0.0 1.7 0.00 0.00 0.00 56 1009.0
20260509023023 76 132 0.9 3.5 0.00 0.00 0.00 54 1009.0
20260509021522 77 135 1.7 6.1 0.00 0.00 0.00 51 1008.8
20260509020018 78 96 1.7 4.3 0.00 0.00 0.00 50 1008.9
20260509014517 79 116 0.9 4.3 0.00 0.00 0.00 49 1008.8
20260509013038 80 116 2.6 7.0 0.00 0.00 0.00 49 1008.8
20260509011516 80 175 1.7 6.1 0.00 0.00 0.00 47 1008.8
20260509010023 81 142 2.6 6.1 0.00 0.00 0.00 46 1008.9
20260509004533 81 160 3.5 7.8 0.00 0.00 0.00 48 1008.8
20260509003014 82 192 4.3 10.4 0.00 0.00 0.00 48 1008.8
20260509001514 83 161 3.5 7.8 0.00 0.00 0.00 47 1008.8
20260509000013 83 137 3.5 7.8 0.00 0.00 0.00 47 1008.7
20260508234512 83 129 3.5 7.8 0.00 0.00 0.00 49 1008.8
20260508233011 84 165 2.6 8.7 0.00 0.00 0.00 48 1008.9
20260508231510 83 192 3.5 9.6 0.00 0.00 0.00 50 1009.0
20260508230028 83 178 3.5 9.6 0.00 0.00 0.00 52 1009.1
20260508224508 83 151 4.3 10.4 0.00 0.00 0.00 51 1009.3
20260508223016 84 204 2.6 11.3 0.00 0.00 0.00 52 1009.4
20260508221507 84 188 4.3 10.4 0.00 0.00 0.00 51 1009.2
20260508220013 84 200 4.3 8.7 0.00 0.00 0.00 53 1009.2
20260508214505 85 149 5.2 11.3 0.00 0.00 0.00 52 1009.3
20260508213004 84 168 5.2 11.3 0.00 0.00 0.00 53 1009.4
20260508211502 84 166 4.3 8.7 0.00 0.00 0.00 54 1009.6
20260508210000 84 168 4.3 9.6 0.00 0.00 0.00 55 1009.7
20260508204559 84 146 3.5 9.6 0.00 0.00 0.00 56 1009.9
20260508203058 83 119 3.5 11.3 0.00 0.00 0.00 57 1010.0
20260508201557 83 188 4.3 9.6 0.00 0.00 0.00 58 1010.1
20260508200058 83 177 4.3 10.4 0.00 0.00 0.00 58 1010.2
20260508194553 84 173 6.1 12.2 0.00 0.00 0.00 56 1010.3
20260508193059 84 113 5.2 10.4 0.00 0.00 0.00 56 1010.6
20260508191553 84 178 3.5 10.4 0.00 0.00 0.00 56 1010.8
20260508184611 83 161 3.5 8.7 0.00 0.00 0.00 59 1011.2
20260508183051 83 171 4.3 13.0 0.00 0.00 0.00 59 1011.2
20260508181603 82 138 3.5 11.3 0.00 0.00 0.00 59 1011.3
20260508180050 84 198 5.2 9.6 0.00 0.00 0.00 55 1011.4
20260508174547 84 163 3.5 8.7 0.00 0.00 0.00 50 1011.3
20260508173049 86 134 5.2 10.4 0.00 0.00 0.00 46 1011.4
20260508171546 90 161 0.9 7.0 0.00 0.00 0.00 31 1011.7
20260508170043 88 28 0.9 6.1 0.00 0.00 0.00 27 1011.6
20260508164554 88 360 1.7 7.0 0.00 0.00 0.00 28 1011.5
20260508163036 86 329 0.9 5.2 0.00 0.00 0.00 30 1011.6
20260508161535 85 355 0.9 5.2 0.00 0.00 0.00 35 1011.7
20260508160031 83 18 1.7 7.0 0.00 0.00 0.00 38 1011.7
20260508154524 81 24 2.6 7.0 0.00 0.00 0.00 42 1011.9
20260508153020 79 11 1.7 5.2 0.00 0.00 0.00 53 1011.9
20260508151516 76 5 0.9 6.1 0.00 0.00 0.00 61 1011.9
20260508150018 74 310 0.9 3.5 0.00 0.00 0.00 67 1011.9
20260508144510 72 323 0.9 5.2 0.00 0.00 0.00 70 1011.8
20260508143003 70 32 0.9 3.5 0.00 0.00 0.00 72 1011.6
20260508141608 68 34 0.0 4.3 0.00 0.00 0.00 77 1011.5
20260508140058 66 333 0.9 5.2 0.00 0.00 0.00 80 1011.5
20260508134600 65 317 0.9 4.3 0.00 0.00 0.00 83 1011.3
20260508133118 65 331 0.9 3.5 0.00 0.00 0.00 83 1011.3
20260508131555 64 350 0.9 3.5 0.00 0.00 0.00 84 1011.1
20260508130054 64 5 0.0 4.3 0.00 0.00 0.00 85 1011.1
20260508124554 64 321 0.9 3.5 0.00 0.00 0.00 85 1010.9
20260508123101 64 295 0.0 3.5 0.00 0.00 0.00 86 1011.0
20260508121552 64 342 0.0 3.5 0.00 0.00 0.00 86 1010.9
20260508120053 64 340 0.0 2.6 0.00 0.00 0.00 86 1010.8
20260508114548 64 340 0.0 2.6 0.00 0.00 0.00 87 1010.7
20260508113102 65 340 0.0 3.5 0.00 0.00 0.00 87 1010.6
20260508111547 65 5 0.0 1.7 0.00 0.00 0.00 86 1010.6
20260508110053 65 5 0.9 1.7 0.00 0.00 0.00 87 1010.6
20260508104543 65 5 0.0 1.7 0.00 0.00 0.00 86 1010.5
20260508103049 66 5 0.0 0.9 0.00 0.00 0.00 86 1010.5
20260508101541 66 5 0.0 0.9 0.00 0.00 0.00 86 1010.6
20260508100039 66 5 0.0 0.9 0.00 0.00 0.00 86 1010.5
20260508094538 67 5 0.0 1.7 0.00 0.00 0.00 86 1010.5
20260508093038 67 5 0.0 2.6 0.00 0.00 0.00 86 1010.5
20260508091542 66 5 0.0 2.6 0.00 0.00 0.00 86 1010.5
20260508090045 67 13 0.0 1.7 0.00 0.00 0.00 86 1010.6
20260508084533 67 13 0.0 2.6 0.00 0.00 0.00 86 1010.8
20260508083038 67 13 0.9 3.5 0.00 0.00 0.00 86 1011.0
20260508081530 67 348 0.0 2.6 0.00 0.00 0.00 86 1011.1
20260508080029 67 341 0.0 3.5 0.00 0.00 0.00 86 1011.2
20260508074536 67 106 0.0 0.9 0.00 0.00 0.00 85 1011.4
20260508073033 67 106 0.0 1.7 0.00 0.00 0.00 85 1011.5
20260508071523 68 106 0.0 0.9 0.00 0.00 0.00 84 1011.7
20260508070021 68 106 0.0 0.9 0.00 0.00 0.00 84 1011.8
20260508064519 68 106 0.0 1.7 0.00 0.00 0.00 84 1011.9